Showing default

FLOCK 4H 18, 66721

Orbit data source: Space-Track

FLOCK 4H 18, 66721 is a payload satellite owned by Planet (US) in SSO that was launched on Fri, 28 Nov 2025 UTC via an FALCON 9 launch vehicle from the Air Force Western Test Range (AFWTR). Payload-class satellites include a variety of spacecraft equipped with specific instruments for various scientific and technological missions. These include communications satellites like Starlink; space stations such as the ISS; scientific satellites like the Hubble; Earth observation satellites from companies like Planet Labs, Umbra, and HawkEye 360; GPS; miniature CubeSats for education and research; and military/defense satellites.

Loading next visibility...
Identifier
66721, 2025-276BH
Orbit
SSO
Country
Flag of USUS
Related business
Manufacturer
Planet
Mission
Operational Commercial Imaging
Bus & Motor
CUBESAT 3U, Unknown motor
Mass
5.7 kg wet, 5.7 kg dry
Launch date (UTC)
2025-11-28 (4 months ago)
Launch vehicle
FALCON 9
Launch site
Air Force Western Test Range (AFWTR)
Object type
Payload
Rocket body
Debris
Shape & HBR
Box + 2 Pan, 1.0 m
Radar Cross Section
0.072 m²

Expand to show TLE details & history
Last TLE update: 17 hours ago

TLE from 17 hours ago
0 FLOCK 4H 18
1 66721U 25276BH  26095.18986274  .00008642  00000-0  41682-3 0  9995
2 66721  97.4212 169.8889 0002284 284.4452  75.6529 15.18933755 19330
Epoch: 2026-04-05T04:33Z
TLE epoch observation values (Epoch: 2026-04-05T04:33:24.140Z)
Latitude
-0.00004°
Longitude
-91.96053°
Altitude
511.761 km
Speed
7.608 km/s
True Right ascension
11h 19m 33s
True Declination
0° 00' 00"
Sunlit
Object was in full shadow at epoch
Visualization orbit readout
Latitude
Unknown
Longitude
Unknown
Altitude
Unknown
Speed
Unknown
Apparent Right ascension
Unknown
Apparent Declination
Unknown
Sunlit
N/A
Visualization observer readout
Local Sidereal Time
03:56:54
Azimuth
Unknown
Elevation
Unknown
Doppler factor
Unknown
Orbital elements
Apogee altitude
507.602 km
Perigee altitude
504.457 km
Semi-major axis
6,884.167 km
Eccentricity
0.00023
Inclination
97.4212°
RAAN
169.8889°
Arg. of periapsis
284.4452°
True anomaly
75.67826°
Mean anomaly
75.6529°
Eccentric anomaly
75.66558°
Mean motion
3.79985 °/min
Orbital period
94.74 mins
BSTAR
0.00041682
Loading maneuver chart data...
Computing Atmospheric mass density...
Loading historical data...
Loading historical data...
Loading historical data...
Loading historical data...
Loading historical data...
Loading historical data...
Loading historical data...

Documentation

Showing up to 5 results
|